カタログに戻る

NOAA 16 DEB

運用中SSO
NORAD 41204·DEBRIS·🇺🇸 United States

打ち上げ Sep 21, 2000 から Vandenberg Space Force Base

Loading…

次のパス (今後24時間)

TLE

最新Source: Space-Track

元期: Sep 11, 2026, 15:00 UTC

1 41204U 00055DH  26254.62527399  .00001520  00000-0  71050-3 0  9997
2 41204  98.6992 317.0608 0018809 336.5907  23.4413 14.21707146554600

AllMySatでNOAA 16 DEBをリアルタイム追跡

Download on the App Store